Weather in Voznesenka

Russia / Tomsk District     56°43′10″N   83°53′47″E
temp.,
°C
wind,
m/s
gust,
m/s
humid.,
%
clouds,
%
prec.,
mm/h
press.,
hPa
HPBL,
m
8 may, sat
sat801:00+7wsw226243 0.0 101421
04:00+6wsw396743 0.0 1014222
07:00+7w411640 0.0 1015541
10:00+12w612382 0.0 10141782
13:00+15wnw713295 0.0 10142404
16:00+17nw7142898 0.0 10122919
19:00+14nnw5113899 0.0 10131934
22:00+8nne376239 0.0 1016389
9 may, sun
sun901:00+5nnw386834 0.0 1018479
04:00+2nw26785 0.0 1019195
07:00+3nnw36765 0.0 1020314
10:00+8n35535 0.0 10201278
13:00+11nne453991 0.0 10211976
16:00+13nne353394 0.0 10212321
19:00+12nne453757 0.0 10222009
22:00+7nne410615 0.0 1023465
10 may, mon
mon1001:00+4ne38805 0.0 1025217
04:00+2ne27895 0.0 1025166
07:00+4ne36765 0.0 1025222
10:00+9ene354914 0.0 10251330
13:00+13ene454048 0.0 10231802
16:00+15ene553923 0.0 10221907
19:00+14ne374113 0.0 10211779
22:00+10ne4116199 0.0 1021474
11 may, tue
tue1101:00+7ne3877100 0.0 1020206
04:00+5ne2785100 0.0 1020156
07:00+6nne3879100 0.0 1020246
10:00+12ne4952100 0.0 10191119
13:00+16ene573674 0.0 10182282
16:00+16nne5736100 0.0 10162254
19:00+15nne5942100 0.0 10171165
22:00+11nne41253100 0.0 1018474
12 may, wed
wed1201:00+9nne41059100 0.0 1018334
04:00+8ne3973100 0.0 1018253
07:00+9ne3872100 0.0 1019353
10:00+11ene3561100 0.0 1019628
13:00+14ne4543100 0.0 10192087
16:00+16ne3532100 0.0 10182337
19:00+15ene3533100 0.0 10192037
22:00+10ene1250100 0.0 102011